Weather Roundup
Issued by NWS

Home | Current Version | Previous Version | Text Only | Print | Product List | Glossary On
Versions: 1 2 3 4 5 6 7 8 9 10 11 12 13 14 15 16 17 18 19 20 21 22 23 24 25 26 27 28 29 30 31 32 33 34 35 36 37 38 39 40 41 42 43 44 45 46 47 48 49 50
401
NZUS93 KARX 301859
HRRWXR

CURRENT HOURLY OBSERVATIONS ACROSS
MUCH OF THE UPPER MISSISSIPPI VALLEY
NATIONAL WEATHER SERVICE LA CROSSE WI
200 PM CDT SAT APR 30 2016


...SOUTHEAST MINNESOTA...


CITY           SKY/WX    TMP DP  RH WIND       PRES   REMARKS
ROCHESTER      LGT RAIN  45  40  82 NE14      30.00S
ROCHESTER/MAYO CLOUDY    48  37  64 NE10G18   30.00F
WINONA         CLOUDY    54  36  50 E16G22    30.02F
AUSTIN         RAIN      43  37  81 E20G28    29.96F
ALBERT LEA     CLOUDY    43  43 100 E20G28    29.96S
DODGE CENTER   LGT RAIN  46  37  71 E23       29.99S
PRESTON        LGT RAIN  42  38  85 NE9G16    29.99S
OWATONNA       CLOUDY    50  36  57 NE18G25   29.99S
FARIBAULT      CLOUDY    52  36  54 NE16G25   30.00F
$$

...ELSEWHERE IN MINNESOTA...


CITY           SKY/WX    TMP DP  RH WIND       PRES   REMARKS
MINNEAPOLIS    CLOUDY    57  33  40 NE21G29   30.05F
INTNL FALLS    SUNNY     53  27  36 NE7G21    30.25F
DULUTH         MOSUNNY   48  30  49 E22G35    30.22S
RED WING       CLOUDY    57  34  41 E13G22    30.03F
REDWOOD FALLS  CLOUDY    53  33  46 E20G29    30.02F
MANKATO        CLOUDY    52  36  54 E17G29    29.99S
WORTHINGTON    RAIN      43  41  93 NE29G37   29.93S FOG
FAIRMONT       CLOUDY    43  34  70 NE17G23   29.98R
$$

...SOUTHWEST WISCONSIN...


CITY           SKY/WX    TMP DP  RH WIND       PRES   REMARKS
LA CROSSE      CLOUDY    52  36  54 E10       30.01F
PRAIRIE DU CHI LGT RAIN  47  42  84 NE15G23   29.95S
BOSCOBEL       LGT RAIN  48  45  89 NE10G16   29.98F FOG
LONE ROCK      NOT AVBL
PLATTEVILLE    CLOUDY    47  45  94 NE20G28   29.93F
FORT MC COY    CLOUDY    52  37  56 E15G22    30.04S
MAUSTON-NEW LI NOT AVBL
VIROQUA        CLOUDY    46  41  84 E16G24    29.99F
WIS DELLS      LGT RAIN  47  39  73 E9        30.04R
$$

...ELSEWHERE IN WISCONSIN...


CITY           SKY/WX    TMP DP  RH WIND       PRES   REMARKS
MILWAUKEE      LGT RAIN  45  38  76 E16       30.05S
MADISON        LGT RAIN  48  42  80 E12       30.03R
GREEN BAY      CLOUDY    51  36  56 NE16      30.11F
EAU CLAIRE     NOT AVBL
BLACK RVR FLS  FAIR      55  33  43 E17G23    30.05R
MEDFORD        CLOUDY    55  33  43 E16       30.09R
WAUSAU         CLOUDY    57  32  38 E14       30.08R
WIS RAPIDS     CLOUDY    53  33  46 E10G23    30.09R
MARSHFIELD     CLOUDY    54  32  43 E20G25    30.08R
RICE LAKE      CLOUDY    58  30  33 NE12G26   30.10F
$$

...NORTHEAST IOWA...


CITY           SKY/WX    TMP DP  RH WIND       PRES   REMARKS
WATERLOO       RAIN      47  44  90 E21       29.87R FOG
DUBUQUE        LGT RAIN  47  44  90 E22G38    29.88F FOG
DECORAH        LGT RAIN  45  45 100 E16G22    29.95R
MASON CITY     LGT RAIN  43  41  93 NE25G31   29.93R FOG
CHARLES CITY   LGT RAIN  46  46 100 E20G26    29.91F
OELWEIN        PTSUNNY   46  46 100 E22G36    29.86F FOG
$$

...ELSEWHERE IN IOWA...


CITY           SKY/WX    TMP DP  RH WIND       PRES   REMARKS
DES MOINES     LGT RAIN  50  46  86 E15       29.77S FOG
IOWA CITY      RAIN      49  47  93 E16G24    29.81F FOG
FORT DODGE     CLOUDY    45  39  81 NE25G35   29.75F
MARSHALLTOWN   LGT RAIN  47  45  93 E23G32    29.82R
CEDAR RAPIDS   RAIN      48  46  93 E21       29.80S FOG
$$

...NORTHERN ILLINOIS...


CITY           SKY/WX    TMP DP  RH WIND       PRES   REMARKS
CHICAGO-OHARE  LGT RAIN  45  42  89 E18G29    29.95F FOG
CHICAGO-MIDWAY LGT RAIN  47  42  83 E16       29.94F
MOLINE         HVY RAIN  50  46  86 E17G28    29.82R VSB 1
ROCKFORD       LGT RAIN  46  42  86 E15G29    29.95F FOG
PEORIA         LGT RAIN  55  53  93 E9G20     29.80S FOG
$$

NOTE: "FAIR" INDICATES FEW OR NO CLOUDS BELOW 12,000 FEET WITH NO
SIGNIFICANT WEATHER AND/OR OBSTRUCTIONS TO VISIBILITY. WIND
SPEEDS ARE IN MILES-PER-HOUR.




USA.gov is the U.S. government's official web portal to all federal, state and local government web resources and services.